Regional Weather Roundup
Issued by NWS Mobile, AL

Home | Current Version | Previous Version | Text Only | Print | Product List | Glossary On
Versions: 1 2 3 4 5 6 7 8 9 10 11 12 13 14 15 16 17 18 19 20 21 22 23 24 25 26 27 28 29 30 31 32 33 34 35 36 37 38 39 40 41 42 43 44 45 46 47 48 49 50
000
ASUS44 KMOB 130912
RWRMOB
REGIONAL WEATHER ROUNDUP
NATIONAL WEATHER SERVICE MOBILE AL
300 AM CST SAT FEB 13 2016

NOTE: "FAIR" INDICATES FEW OR NO CLOUDS BELOW 12,000 FEET WITH NO
      SIGNIFICANT WEATHER AND/OR OBSTRUCTIONS TO VISIBILITY.

  * THESE STATIONS ARE PART OF THE UNIVERSITY OF SOUTH ALABAMA
    MESONET AND ARE NOT UNDER NWS OR FAA QUALITY CONTROL.

ALZ061>064-131000-
COASTAL ALABAMA

CITY           SKY/WX    TMP DP  RH WIND       PRES   REMARKS
MOBILE REG APT PTCLDY    48  32  53 N13G22    30.31R
BROOKLEY FIELD PTCLDY    50  33  52 N14G22    30.31R
USA CAMPUS*    NOT AVBL
DOG RIVER*     NOT AVBL


CITY           SKY/WX    TMP DP  RH WIND       PRES   REMARKS
MOUNT VERNON*  NOT AVBL
SARALAND*      NOT AVBL
BAY MINETTE*   NOT AVBL
LOXLEY*        NOT AVBL
ROBERTSDALE*   NOT AVBL
FAIRHOPE*      NOT AVBL
ELBERTA*       NOT AVBL
FOLEY*         NOT AVBL
GRAND BAY*     NOT AVBL
DAUPHIN ISLND* NOT AVBL
BON SCOUR NWR* NOT AVBL
GULF SHORES    CLEAR     50  35  55 N10       30.28R

$$

ALZ051>060-131000-
INTERIOR SOUTHWEST AND SOUTH CENTRAL ALABAMA

CITY           SKY/WX    TMP DP  RH WIND       PRES   REMARKS
GREENVILLE     CLEAR     44  28  53 N9        30.29R
EVERGREEN      CLEAR     46  28  49 N12G20    30.31R
CASTLEBERRY*   NOT AVBL
ATMORE*        NOT AVBL
DIXIE*         NOT AVBL
ANDALUSIA/OPP  CLEAR     49  32  52 N9        30.27R
ANDALUSIA*     NOT AVBL
FLORALA APT    NOT AVBL
FLORALA*       NOT AVBL

$$

FLZ001>006-131000-
WESTERN FLORIDA PANHANDLE

CITY           SKY/WX    TMP DP  RH WIND       PRES   REMARKS
PENSACOLA      PTCLDY    51  33  50 N17G28    30.26S
NAS PENSACOLA  CLEAR     51  34  52 N9G21     30.27
MILTON         PTCLDY    48  32  53 VRB6      30.27R
WHTNG S FIELD  PTCLDY    50  33  52 N13       30.27R


CITY           SKY/WX    TMP DP  RH WIND       PRES   REMARKS
WALNUT HILL*   NOT AVBL
JAY*           NOT AVBL
DUKE FIELD     CLEAR     49  33  53 N9        30.24S
CRESTVIEW      PTCLDY    49  33  54 N9        30.27S
VALPARAISO     CLEAR     50  34  52 N10       30.24R
DESTIN         CLEAR     54  35  48 N17       30.24S

$$

MSZ076-079-131000-
INTERIOR SOUTHEAST MISSISSIPPI

CITY           SKY/WX    TMP DP  RH WIND       PRES   REMARKS
LEAKESVILLE*   NOT AVBL
AGRICOLA*      NOT AVBL

$$

MARINE OBSERVATIONS

STATION/POSITION TIME  TEMP    WIND        PRES    WAVE
                       AIR SEA DIR/SP/G            HT/PER
                 (UTC) (F)     (DEG/KT/KT) (MB)    (FT/S)
PASCAGOULA       0800   53     360/ 10/ 12 1025.4R
PETIT BOIS ISLND 0800   55     360/ 19/ 25 1025.6R
GRAND BAY        0700   55      10/ 11     1026.0S
KATRINA CUT      0800   54      10/ 20       N/A
CEDAR POINT      0800   53      10/ 12     1024.7R
E DAUPHIN ISLAND 0800   55     360/ 20/ 25 1024.9R
MIDDLE BAY LIGHT 0800          360/ 26     1024.4R
USCG MOBILE BAY  0800   53 56  360/ 14/ 18 1026.1R
STATE DOCKS      0800   53 53              1025.5R
MEAHER PARK      0800   53     340/  7     1025.7R
WEEKS BAY        0700   55                   N/A
FORT MORGAN      0800   55      10/ 23/ 25 1024.3R
12 S ORANGE BCH  0850   56 65  360/ 25/ 29 1023.5R   3/ 4
PENSACOLA BAY    0800   56 52   10/  9/ 14 1024.7R

$$

SELECTED LOCATIONS ACROSS THE REGION

CITY           SKY/WX    TMP DP  RH WIND       PRES   REMARKS
NEW ORLEANS    PTCLDY    53  38  56 NE7       30.30S
GULFPORT       CLEAR     51  33  50 N10       30.30R
PASCAGOULA AP  PTCLDY    50  35  56 N10G21    30.30R
PASCAGOULA*    NOT AVBL
HATTIESBURG    CLEAR     47  32  56 N5        30.34S
LAUREL         CLEAR     43  30  61 N9        30.33S
MERIDIAN       CLEAR     39  27  62 N9        30.36S
JACKSON        CLEAR     45  31  58 NE8       30.36S
MONTGOMERY     CLEAR     42  26  53 NW8       30.31S
TROY           CLEAR     46  29  51 N17G23    30.28R
KINSTON*       NOT AVBL
GENEVA*        NOT AVBL
ASHFORD*       NOT AVBL
DOTHAN         PTCLDY    46  33  60 NW9       30.26R
PANAMA CITY    CLEAR     49  37  63 NW7       30.22R

$$




USA.gov is the U.S. government's official web portal to all federal, state and local government web resources and services.